Regional Weather Roundup
Issued by NWS

Home | Current Version | Previous Version | Graphics & Text | Print | Product List | Glossary On
Versions: 1 2 3 4 5 6 7 8 9 10 11 12 13 14 15 16 17 18 19 20 21 22 23 24 25 26 27 28 29 30 31 32 33 34 35 36 37 38 39 40 41 42 43 44 45 46 47 48 49 50
106
ASUS45 KCYS 291210
RWRWY

WYOMING REGIONAL WEATHER ROUNDUP
NATIONAL WEATHER SERVICE CHEYENNE WY
600 AM MDT SAT APR 29 2017

NOTE:  "FAIR" INDICATES FEW OR NO CLOUDS BELOW 12,000 FEET
WITH NO SIGNIFICANT WEATHER AND/OR OBSTRUCTIONS TO VISIBILITY.

WYZ001-291300-
YELLOWSTONE NATIONAL PARK

CITY           SKY/WX    TMP DP  RH WIND       PRES   REMARKS
LK YELLOWSTONE   N/A     14  12  92 CALM      30.19R
6HR MIN TEMP:  14; 6HR MAX TEMP:  23;

W YELLOWSTONE  NOT AVBL

$$
WYZ002>013-054>058-071-098>099-291300-
NORTHERN WYOMING

CITY           SKY/WX    TMP DP  RH WIND       PRES   REMARKS
JACKSON        FAIR      27  23  86 N14       30.17R WCI  15
CODY           LGT RAIN  34  28  79 CALM      30.22R
GREYBULL       MOCLDY    34  31  88 CALM      30.23R
6HR MIN TEMP:  34; 6HR MAX TEMP:  39;

WORLAND        FAIR      30  30 100 S7        30.22S WCI  23
6HR MIN TEMP:  28; 6HR MAX TEMP:  33;

SHERIDAN       FAIR      25  20  81 CALM      30.22S
6HR MIN TEMP:  25; 6HR MAX TEMP:  32;

BUFFALO        FAIR      27  15  61 SW9       30.21S WCI  18
6HR MIN TEMP:  27; 6HR MAX TEMP:  32;

GILLETTE       FAIR      13  12  96 S6        30.22R WCI   4
6HR MIN TEMP:  11; 6HR MAX TEMP:  32;

HULETT         FAIR      28  25  86 SE5       30.23R WCI  23
NEWCASTLE      FAIR      28  23  80 NE3       30.23R

$$
WYZ014>020-022>026-101>103-291300-
CENTRAL WYOMING

CITY           SKY/WX    TMP DP  RH WIND       PRES   REMARKS
BIG PINEY      FAIR      19  15  84 W3        30.17R
6HR MIN TEMP:  16; 6HR MAX TEMP:  25;

PINEDALE       CLOUDY    23  19  86 NW5       30.17S WCI  17
DUBOIS         FLURRIES  23  21  93 SE6       30.17R WCI  16
LANDER         CLOUDY    27  23  85 W8        30.19S WCI  19
6HR MIN TEMP:  27; 6HR MAX TEMP:  29; 6HR PCP: TRACE;

RIVERTON       CLOUDY    25  24  96 NW7       30.20S WCI  17
6HR MIN TEMP:  25; 6HR MAX TEMP:  29; 6HR PCP: TRACE;

CASPER         FOG       24  22  91 NW3       30.19R VSB 1/2
6HR MIN TEMP:  23; 6HR MAX TEMP:  30; 6HR PCP: TRACE;

DOUGLAS        FOG       20  19  96 NW3       30.19R VSB 1/2
6HR MIN TEMP:  21; 6HR MAX TEMP:  28;


$$
WYZ021-027>030-104>119-291300-
SOUTHERN WYOMING

CITY           SKY/WX    TMP DP  RH WIND       PRES   REMARKS
EVANSTON       MOCLDY    24  20  84 NE8       30.13R WCI  15
6HR MIN TEMP:  24; 6HR MAX TEMP:  27;

FORT BRIDGER   CLOUDY    21  21 100 N3        30.18R
ROCK SPRINGS   CLOUDY    27  19  72 NE15      30.12R WCI  15
6HR MIN TEMP:  27; 6HR MAX TEMP:  29;

DIXON            N/A     30  18  62 NE12      30.04R WCI  20
RAWLINS        CLOUDY    25  19  78 NE16      30.11R WCI  12
6HR MIN TEMP:  25; 6HR MAX TEMP:  26;

SARATOGA       CLOUDY    27  21  80 NE6       30.07R WCI  20
LARAMIE        FLURRIES  23  19  85 E13       30.07S WCI  11
6HR MIN TEMP:  23; 6HR MAX TEMP:  24; 6HR PCP: TRACE;

CHEYENNE       CLOUDY    26  24  92 N10       30.12R WCI  16
6HR MIN TEMP:  26; 6HR MAX TEMP:  27; 6HR PCP:  0.02;

TORRINGTON     CLOUDY    31  27  85 N10       30.17R WCI  22
6HR MIN TEMP:  31; 6HR MAX TEMP:  33;

PINE BLUFFS    CLOUDY    30  30 100 N9        30.14R WCI  22

$$




USA.gov is the U.S. government's official web portal to all federal, state and local government web resources and services.